WRC145 UKBB-UKHH

Flight info

Callsign WRC145
Flight time 0h 49m
Altitude 31000
Route GOTAP P142 UDVIR
Aircraft A320/M-SDE3FGHIRWY/LB1

Departure

Time 2026-05-05 18:04
Airport Boryspil International Airport (UKBB)

Arrival

Time 2026-05-05 18:54
Airport Kharkiv International Airport (UKHH)
Time Latitude Longitude Altitude Speed Heading
2026-05-05 17:35 50.35220 30.89886 423 ft 0 kts 273°
2026-05-05 17:49 50.35220 30.89889 423 ft 2 kts 273°
2026-05-05 17:49 50.35218 30.89930 415 ft 4 kts 279°
2026-05-05 17:49 50.35212 30.89971 413 ft 4 kts 291°
2026-05-05 17:50 50.35199 30.90005 411 ft 4 kts 328°
2026-05-05 17:50 50.35188 30.90013 415 ft 1 kts
2026-05-05 17:50 50.35187 30.90013 415 ft 0 kts
2026-05-05 17:53 50.35188 30.90013 423 ft 1 kts
2026-05-05 17:53 50.35254 30.90017 423 ft 18 kts
2026-05-05 17:53 50.35435 30.90055 422 ft 31 kts 40°
2026-05-05 17:53 50.35455 30.90189 422 ft 22 kts 120°
2026-05-05 17:54 50.35450 30.90205 417 ft 22 kts 119°
2026-05-05 17:55 50.35459 30.90311 410 ft 0 kts 20°
2026-05-05 17:55 50.35472 30.90306 420 ft 8 kts 349°
2026-05-05 17:55 50.35533 30.90287 415 ft 9 kts 353°
2026-05-05 17:55 50.35557 30.90287 413 ft 0 kts
2026-05-05 18:01 50.35589 30.90289 415 ft 5 kts
2026-05-05 18:01 50.35627 30.90290 411 ft 6 kts 360°
2026-05-05 18:01 50.35668 30.90290 419 ft 12 kts 359°
2026-05-05 18:01 50.35755 30.90297 414 ft 13 kts
2026-05-05 18:02 50.35847 30.90303 419 ft 17 kts
2026-05-05 18:02 50.35993 30.90319 417 ft 23 kts
2026-05-05 18:02 50.36076 30.90486 417 ft 21 kts 99°
2026-05-05 18:02 50.35981 30.90624 412 ft 20 kts 165°
2026-05-05 18:03 50.35927 30.90633 414 ft 0 kts 181°
2026-05-05 18:03 50.35926 30.90633 415 ft 6 kts 181°
2026-05-05 18:03 50.35479 30.90607 415 ft 117 kts 182°
2026-05-05 18:03 50.34393 30.90525 424 ft 193 kts 182°
2026-05-05 18:04 50.32941 30.90408 983 ft 223 kts 183°
2026-05-05 18:04 50.31374 30.90288 1654 ft 215 kts 183°
2026-05-05 18:04 50.29857 30.90183 2350 ft 225 kts 184°
2026-05-05 18:04 50.28201 30.90070 3053 ft 252 kts 184°
2026-05-05 18:05 50.26423 30.89963 3726 ft 259 kts 184°
2026-05-05 18:05 50.24601 30.89867 4391 ft 264 kts 184°
2026-05-05 18:05 50.22742 30.89784 5062 ft 269 kts 184°
2026-05-05 18:05 50.20864 30.89699 5734 ft 273 kts 184°
2026-05-05 18:06 50.18944 30.89622 6408 ft 278 kts 184°
2026-05-05 18:06 50.17657 30.89573 6842 ft 280 kts 184°
2026-05-05 18:06 50.15024 30.89482 7724 ft 286 kts 181°
2026-05-05 18:06 50.13066 30.90091 8410 ft 293 kts 158°
2026-05-05 18:07 50.11555 30.91668 9033 ft 299 kts 135°
2026-05-05 18:08 50.11398 30.91920 9110 ft 300 kts 132°
2026-05-05 18:08 50.10354 30.94727 9812 ft 303 kts 105°
2026-05-05 18:08 50.10189 30.97994 10468 ft 311 kts 79°
2026-05-05 18:09 50.10986 31.01171 11139 ft 324 kts 52°
2026-05-05 18:09 50.12629 31.03629 11818 ft 335 kts 35°
2026-05-05 18:09 50.14357 31.06093 12499 ft 340 kts 51°
2026-05-05 18:09 50.15490 31.09337 13204 ft 344 kts 68°
2026-05-05 18:10 50.15685 31.10193 13381 ft 345 kts 71°
2026-05-05 18:10 50.16263 31.13844 14057 ft 349 kts 78°
2026-05-05 18:10 50.16646 31.17589 14710 ft 351 kts 80°
2026-05-05 18:10 50.16992 31.21379 15378 ft 354 kts 80°
2026-05-05 18:11 50.17381 31.25180 16054 ft 357 kts 79°
2026-05-05 18:11 50.17833 31.28997 16745 ft 359 kts 77°
2026-05-05 18:11 50.18345 31.32825 17460 ft 362 kts 76°
2026-05-05 18:11 50.18902 31.36676 18186 ft 365 kts 76°
2026-05-05 18:12 50.19482 31.40550 18829 ft 369 kts 75°
2026-05-05 18:12 50.20074 31.44464 19485 ft 372 kts 76°
2026-05-05 18:12 50.20666 31.48414 20156 ft 375 kts 76°
2026-05-05 18:12 50.21257 31.52407 20833 ft 379 kts 76°
2026-05-05 18:13 50.21842 31.56431 21540 ft 383 kts 77°
2026-05-05 18:13 50.22430 31.60511 22246 ft 386 kts 77°
2026-05-05 18:13 50.23020 31.64617 22970 ft 390 kts 77°
2026-05-05 18:13 50.23613 31.68771 23691 ft 393 kts 77°
2026-05-05 18:14 50.24206 31.72945 24320 ft 395 kts 77°
2026-05-05 18:14 50.24802 31.77131 24971 ft 396 kts 77°
2026-05-05 18:14 50.25348 31.81353 25635 ft 396 kts 82°
2026-05-05 18:14 50.25474 31.83245 25936 ft 397 kts 86°
2026-05-05 18:15 50.25515 31.85260 26255 ft 397 kts 89°
2026-05-05 18:15 50.25520 31.89561 26955 ft 397 kts 89°
2026-05-05 18:16 50.25527 31.93881 27666 ft 396 kts 89°
2026-05-05 18:16 50.25534 31.98177 28401 ft 395 kts 89°
2026-05-05 18:16 50.25541 32.01859 29043 ft 394 kts 89°
2026-05-05 18:16 50.25544 32.03084 29263 ft 393 kts 90°
2026-05-05 18:17 50.25556 32.07337 30032 ft 391 kts 89°
2026-05-05 18:17 50.25561 32.11570 30648 ft 391 kts 89°
2026-05-05 18:17 50.25561 32.15875 30865 ft 401 kts 89°
2026-05-05 18:17 50.25556 32.20304 30935 ft 414 kts 89°
2026-05-05 18:18 50.25548 32.24840 30941 ft 419 kts 89°
2026-05-05 18:18 50.25532 32.31957 30945 ft 419 kts 89°
2026-05-05 18:19 50.25513 32.37184 30941 ft 420 kts 90°
2026-05-05 18:19 50.25349 32.46297 30948 ft 420 kts 91°
2026-05-05 18:20 50.25141 32.54056 30950 ft 420 kts 92°
2026-05-05 18:20 50.24968 32.60497 30945 ft 420 kts 91°
2026-05-05 18:21 50.24741 32.69620 30952 ft 420 kts 91°
2026-05-05 18:21 50.24521 32.78744 30955 ft 420 kts 91°
2026-05-05 18:22 50.24297 32.87863 30958 ft 420 kts 91°
2026-05-05 18:22 50.24065 32.96989 30963 ft 420 kts 92°
2026-05-05 18:23 50.23819 33.06094 30957 ft 420 kts 92°
2026-05-05 18:23 50.23568 33.15195 30955 ft 420 kts 92°
2026-05-05 18:24 50.23308 33.24305 30958 ft 420 kts 92°
2026-05-05 18:24 50.23046 33.33410 30967 ft 420 kts 92°
2026-05-05 18:25 50.22964 33.36153 30970 ft 420 kts 92°
2026-05-05 18:25 50.22847 33.39989 30968 ft 419 kts 92°
2026-05-05 18:26 50.22561 33.49083 30968 ft 419 kts 92°
2026-05-05 18:26 50.22269 33.58166 30963 ft 419 kts 92°
2026-05-05 18:27 50.21982 33.67254 30969 ft 419 kts 92°
2026-05-05 18:27 50.21684 33.76334 30961 ft 419 kts 92°
2026-05-05 18:28 50.21236 33.88834 30954 ft 419 kts 96°
2026-05-05 18:28 50.20268 33.97830 30962 ft 420 kts 99°
2026-05-05 18:29 50.19283 34.06771 30967 ft 419 kts 99°
2026-05-05 18:29 50.18283 34.15768 30962 ft 420 kts 99°
2026-05-05 18:30 50.17292 34.24691 30958 ft 420 kts 99°
2026-05-05 18:30 50.16289 34.33663 30957 ft 420 kts 99°
2026-05-05 18:31 50.15271 34.42673 30955 ft 421 kts 99°
2026-05-05 18:31 50.14752 34.47229 30956 ft 432 kts 99°
2026-05-05 18:31 50.14224 34.51843 30714 ft 432 kts 99°
2026-05-05 18:32 50.13704 34.56388 30154 ft 428 kts 99°
2026-05-05 18:32 50.13182 34.60934 29366 ft 423 kts 99°
2026-05-05 18:32 50.12663 34.65426 28988 ft 420 kts 99°
2026-05-05 18:32 50.12149 34.69887 28392 ft 416 kts 99°
2026-05-05 18:33 50.11647 34.74305 27669 ft 411 kts 98°
2026-05-05 18:33 50.11156 34.78661 26982 ft 406 kts 98°
2026-05-05 18:33 50.10668 34.82988 26306 ft 402 kts 98°
2026-05-05 18:33 50.10183 34.87247 25655 ft 397 kts 98°
2026-05-05 18:34 50.09701 34.91459 25031 ft 393 kts 98°
2026-05-05 18:34 50.09227 34.95581 24425 ft 389 kts 98°
2026-05-05 18:34 50.08752 34.99698 23844 ft 385 kts 98°
2026-05-05 18:34 50.08280 35.03777 23225 ft 381 kts 98°
2026-05-05 18:35 50.07809 35.07826 22583 ft 378 kts 98°
2026-05-05 18:35 50.07339 35.11829 21965 ft 374 kts 98°
2026-05-05 18:35 50.06873 35.15812 21370 ft 371 kts 98°
2026-05-05 18:35 50.06517 35.19716 20785 ft 366 kts 91°
2026-05-05 18:36 50.06468 35.22382 20389 ft 363 kts 90°
2026-05-05 18:36 50.06395 35.27573 19624 ft 360 kts 90°
2026-05-05 18:36 50.06354 35.30194 19239 ft 358 kts 90°
2026-05-05 18:36 50.06292 35.34053 18685 ft 355 kts 90°
2026-05-05 18:37 50.06227 35.37884 18130 ft 353 kts 90°
2026-05-05 18:37 50.06163 35.41637 17529 ft 350 kts 90°
2026-05-05 18:37 50.06098 35.45403 16937 ft 347 kts 90°
2026-05-05 18:37 50.06033 35.49150 16371 ft 345 kts 90°
2026-05-05 18:38 50.05970 35.52874 15832 ft 343 kts 90°
2026-05-05 18:38 50.05905 35.56566 15293 ft 340 kts 90°
2026-05-05 18:38 50.05837 35.60230 14760 ft 338 kts 90°
2026-05-05 18:38 50.05767 35.63878 14245 ft 336 kts 90°
2026-05-05 18:39 50.05700 35.67499 13733 ft 334 kts 90°
2026-05-05 18:39 50.05634 35.71094 13162 ft 331 kts 90°
2026-05-05 18:39 50.05564 35.74671 12608 ft 328 kts 90°
2026-05-05 18:39 50.05491 35.78203 12061 ft 325 kts 90°
2026-05-05 18:40 50.05417 35.81704 11517 ft 322 kts 90°
2026-05-05 18:40 50.05344 35.85155 11116 ft 315 kts 90°
2026-05-05 18:40 50.05274 35.88485 10992 ft 300 kts 90°
2026-05-05 18:40 50.05208 35.91656 10848 ft 287 kts 90°
2026-05-05 18:41 50.05144 35.94723 10526 ft 282 kts 90°
2026-05-05 18:41 50.05080 35.97760 10135 ft 280 kts 90°
2026-05-05 18:41 50.05014 36.00774 9717 ft 278 kts 90°
2026-05-05 18:41 50.04944 36.03771 9240 ft 277 kts 90°
2026-05-05 18:42 50.04875 36.06757 8760 ft 276 kts 90°
2026-05-05 18:42 50.04806 36.09740 8288 ft 275 kts 90°
2026-05-05 18:42 50.04913 36.12697 7803 ft 273 kts 81°
2026-05-05 18:42 50.05165 36.15624 7317 ft 273 kts 81°
2026-05-05 18:43 50.05412 36.18552 6851 ft 273 kts 81°
2026-05-05 18:43 50.05652 36.21448 6187 ft 268 kts 82°
2026-05-05 18:43 50.05891 36.24336 5351 ft 273 kts 82°
2026-05-05 18:43 50.06132 36.27268 4847 ft 273 kts 82°
2026-05-05 18:44 50.06369 36.30159 4587 ft 263 kts 82°
2026-05-05 18:44 50.06594 36.32905 4433 ft 249 kts 82°
2026-05-05 18:44 50.06810 36.35550 4130 ft 245 kts 82°
2026-05-05 18:44 50.07025 36.38163 3882 ft 239 kts 82°
2026-05-05 18:45 50.07230 36.40665 3764 ft 228 kts 83°
2026-05-05 18:45 50.07423 36.43066 3618 ft 220 kts 83°
2026-05-05 18:45 50.07610 36.45408 3368 ft 218 kts 83°
2026-05-05 18:45 50.07796 36.47748 3089 ft 218 kts 83°
2026-05-05 18:46 50.07982 36.50085 2890 ft 215 kts 83°
2026-05-05 18:46 50.08129 36.52343 2486 ft 214 kts 92°
2026-05-05 18:46 50.07739 36.54518 2423 ft 198 kts 122°
2026-05-05 18:46 50.06868 36.56053 2424 ft 188 kts 147°
2026-05-05 18:47 50.05690 36.56869 2422 ft 185 kts 171°
2026-05-05 18:47 50.04418 36.57114 2439 ft 185 kts 176°
2026-05-05 18:47 50.03141 36.57346 2436 ft 185 kts 175°
2026-05-05 18:47 50.01875 36.57583 2458 ft 181 kts 175°
2026-05-05 18:48 50.00657 36.57817 2468 ft 174 kts 175°
2026-05-05 18:48 49.99460 36.58047 2472 ft 169 kts 175°
2026-05-05 18:48 49.98367 36.58260 2466 ft 158 kts 175°
2026-05-05 18:48 49.97266 36.58470 2470 ft 157 kts 175°
2026-05-05 18:49 49.96194 36.58705 2445 ft 157 kts 182°
2026-05-05 18:49 49.95258 36.57973 2445 ft 155 kts 228°
2026-05-05 18:49 49.94853 36.56447 2447 ft 156 kts 262°
2026-05-05 18:49 49.94739 36.54778 2393 ft 156 kts 262°
2026-05-05 18:50 49.94614 36.53108 2344 ft 155 kts 262°
2026-05-05 18:50 49.94485 36.51436 2300 ft 156 kts 261°
2026-05-05 18:50 49.94355 36.49776 2268 ft 155 kts 261°
2026-05-05 18:50 49.94223 36.48111 2268 ft 156 kts 261°
2026-05-05 18:51 49.94091 36.46439 2276 ft 155 kts 261°
2026-05-05 18:51 49.93962 36.44816 2273 ft 150 kts 261°
2026-05-05 18:51 49.93834 36.43213 2131 ft 149 kts 261°
2026-05-05 18:51 49.93705 36.41619 1974 ft 149 kts 261°
2026-05-05 18:52 49.93577 36.40028 1785 ft 148 kts 260°
2026-05-05 18:52 49.93450 36.38446 1563 ft 147 kts 261°
2026-05-05 18:52 49.93321 36.36858 1357 ft 149 kts 260°
2026-05-05 18:52 49.93191 36.35257 1151 ft 150 kts 261°
2026-05-05 18:53 49.93064 36.33639 941 ft 152 kts 263°
2026-05-05 18:53 49.92941 36.32011 753 ft 152 kts 267°
2026-05-05 18:53 49.92797 36.30394 555 ft 145 kts 260°
2026-05-05 18:53 49.92683 36.29137 514 ft 74 kts 263°
2026-05-05 18:54 49.92643 36.28631 513 ft 32 kts 264°
2026-05-05 18:54 49.92615 36.28379 511 ft 17 kts 219°
2026-05-05 18:54 49.92560 36.28257 506 ft 21 kts 237°
2026-05-05 18:54 49.92469 36.28032 496 ft 28 kts 236°
2026-05-05 18:55 49.92447 36.27959 495 ft 0 kts 247°
2026-05-05 18:55 49.92419 36.27956 493 ft 1 kts 159°
2026-05-05 18:55 49.92416 36.27987 493 ft 4 kts 68°
2026-05-05 18:55 49.92435 36.28073 487 ft 0 kts 78°
2026-05-05 18:56 49.92440 36.28104 493 ft 3 kts 75°
2026-05-05 18:56 49.92442 36.28128 495 ft 0 kts 79°
2026-05-05 18:56 49.92416 36.28162 492 ft 7 kts 171°
2026-05-05 18:56 49.92332 36.28122 489 ft 16 kts 176°
2026-05-05 18:57 49.92303 36.28131 490 ft 1 kts 183°
2026-05-05 18:57 49.92293 36.28124 492 ft 3 kts 210°
2026-05-05 18:57 49.92270 36.28072 489 ft 0 kts 237°
2026-05-05 18:57 49.92269 36.28070 489 ft 0 kts 237°
2026-05-05 19:06 50.25558 32.08318 30191 ft 0 kts 89°
2026-05-05 19:07 50.25558 32.08519 30225 ft 0 kts 89°